Pocatello, ID

11:54 PM MDT on April 20, 2018 (GMT -0600)
Pocatello Regional

Weather History for KPIH - October, 2012

Change the Weather History Date:

Friday, October 12, 2012

  Actual Average Record
Temperature  
Mean Temperature 55 °F 48 °F  
Max Temperature 75 °F 63 °F 81 °F (1950)
Min Temperature 35 °F 34 °F 18 °F (1986)
Degree Days  
Heating Degree Days 10 17  
Month to date heating degree days 202 174  
Since 1 July heating degree days 345 423  
Cooling Degree Days 0 0  
Month to date cooling degree days 0 0  
Year to date cooling degree days 560 392  
Growing Degree Days 6 (Base 50)    
Moisture  
Dew Point 35 °F    
Average Humidity 50    
Maximum Humidity 76    
Minimum Humidity 23    
Precipitation  
Precipitation 0.00 in 0.03 in 0.41 in (1954)
Month to date precipitation 0.00 0.34  
Year to date precipitation 6.54 9.25  
Snow  
Snow 0.00 in - - ()
Month to date snowfall 0.0  
Since 1 July snowfall 0.0  
Since 1 September snowfall 0.0  
Snow Depth 0.00 in    
Sea Level Pressure  
Sea Level Pressure 29.84 in    
Wind  
Wind Speed 6 mph (SW)    
Max Wind Speed 18 mph    
Max Gust Speed 24 mph    
Visibility 10 miles    
Events      
T = Trace of Precipitation, MM = Missing Value Source: NWS Daily Summary

Daily Weather History Graph

Daily Weather History Graph

Search for Another Location

Airport or City:

Astronomy

Oct. 12, 2012 Rise Set
Actual Time 7:40 AM MDT 6:51 PM MDT
Civil Twilight 7:12 AM MDT 7:20 PM MDT
Nautical Twilight 6:39 AM MDT 7:53 PM MDT
Astronomical Twilight 6:06 AM MDT 8:25 PM MDT
Moon 4:24 AM MDT (10/12) 5:06 PM MDT (10/12)
Length of Visible Light 12h 07m
Length of Day
11h 10m
Waning Crescent, 10% of the Moon is Illuminated
Oct 12
Waning Crescent
Oct 15
New
Oct 21
First Quarter
Oct 29
Full
Nov 6
Last Quarter

Hourly Weather History & Observations

Time (MDT) Temp. Windchill Dew Point Humidity Pressure Visibility Wind Dir Wind Speed Gust Speed Precip Events Conditions
12:53 AM 44.1 °F - 32.0 °F 63% 29.86 in 10.0 mi Calm Calm - N/A   Scattered Clouds
1:53 AM 50.0 °F - 33.8 °F 54% 29.93 in 10.0 mi Calm Calm - N/A   Overcast
2:53 AM 46.0 °F 43.9 °F 33.1 °F 61% 29.84 in 10.0 mi WNW 4.6 mph - N/A   Mostly Cloudy
3:53 AM 39.0 °F - 30.0 °F 70% 29.85 in 10.0 mi Calm Calm - N/A   Clear
4:53 AM 42.1 °F - 33.1 °F 70% 29.85 in 10.0 mi Calm Calm - N/A   Clear
5:53 AM 41.0 °F - 32.0 °F 70% 29.85 in 10.0 mi Calm Calm - N/A   Clear
6:53 AM 37.0 °F - 30.9 °F 79% 29.88 in 10.0 mi Calm Calm - N/A   Clear
7:53 AM 37.4 °F - 30.2 °F 75% 29.94 in 10.0 mi Calm Calm - N/A   Clear
8:53 AM 44.1 °F - 32.0 °F 63% 29.89 in 10.0 mi Calm Calm - N/A   Scattered Clouds
9:53 AM 51.8 °F - 33.8 °F 50% 29.94 in 10.0 mi NW 4.6 mph - N/A   Scattered Clouds
10:53 AM 55.4 °F - 33.8 °F 44% 29.95 in 10.0 mi Calm Calm - N/A   Partly Cloudy
11:53 AM 64.9 °F - 34.0 °F 32% 29.85 in 10.0 mi Calm Calm - N/A   Partly Cloudy
12:53 PM 69.1 °F - 35.1 °F 29% 29.83 in 10.0 mi West 6.9 mph - N/A   Partly Cloudy
1:53 PM 72.0 °F - 36.0 °F 27% 29.78 in 10.0 mi WNW 10.4 mph - N/A   Partly Cloudy
2:53 PM 73.0 °F - 34.0 °F 24% 29.76 in 10.0 mi WSW 9.2 mph - N/A   Clear
3:53 PM 73.4 °F - 33.8 °F 23% 29.84 in 10.0 mi WSW 6.9 mph - N/A   Partly Cloudy
4:53 PM 73.9 °F - 33.1 °F 22% 29.74 in 10.0 mi WSW 5.8 mph - N/A   Clear
5:53 PM 72.0 °F - 32.0 °F 23% 29.75 in 10.0 mi WSW 5.8 mph - N/A   Clear
6:53 PM 66.9 °F - 36.0 °F 32% 29.78 in 10.0 mi SW 9.2 mph - N/A   Clear
7:53 PM 62.6 °F - 37.4 °F 39% 29.86 in 10.0 mi SSW 11.5 mph 21.9 mph N/A   Clear
8:53 PM 61.0 °F - 39.9 °F 46% 29.82 in 10.0 mi South 13.8 mph - N/A   Clear
9:53 PM 61.0 °F - 39.9 °F 46% 29.81 in 10.0 mi South 16.1 mph - N/A   Clear
10:53 PM 59.0 °F - 41.0 °F 51% 29.83 in 10.0 mi South 12.7 mph - N/A   Scattered Clouds
11:53 PM 57.9 °F - 42.1 °F 56% 29.81 in 10.0 mi South 16.1 mph 23.0 mph N/A   Scattered Clouds